Time,TemperatureF,DewpointF,PressureIn,WindDirection,WindDirectionDegrees,WindSpeedMPH,WindSpeedGustMPH,Humidity,HourlyPrecipIn,Conditions,Clouds,dailyrainin,SoftwareType,DateUTC
2013-03-03 00:06:00,35.6,25.4,-100.00,NW,315,5.8,-999.0,66,-99.99,,,0.00,Acu-Link.com,2013-03-03 05:06:00,
2013-03-03 00:21:00,35.4,25.2,-100.00,NNW,337,3.8,-999.0,66,-99.99,,,0.00,Acu-Link.com,2013-03-03 05:21:00,
2013-03-03 00:36:00,35.2,25.0,-100.00,SSW,202,2.2,-999.0,66,-99.99,,,0.00,Acu-Link.com,2013-03-03 05:36:00,
2013-03-03 00:52:00,35.1,24.9,-100.00,NNW,337,4.3,-999.0,66,-99.99,,,0.00,Acu-Link.com,2013-03-03 05:52:00,
2013-03-03 01:07:00,34.7,24.9,-100.00,NNE,22,3.1,-999.0,67,-99.99,,,0.00,Acu-Link.com,2013-03-03 06:07:00,
2013-03-03 01:22:00,34.7,24.9,-100.00,NNW,337,2.2,-999.0,67,-99.99,,,0.00,Acu-Link.com,2013-03-03 06:22:00,
2013-03-03 01:37:00,34.5,24.7,-100.00,WNW,292,2.7,-999.0,67,-99.99,,,0.00,Acu-Link.com,2013-03-03 06:37:00,
2013-03-03 01:52:00,34.5,25.1,-100.00,NNW,337,5.1,-999.0,68,-99.99,,,0.00,Acu-Link.com,2013-03-03 06:52:00,
2013-03-03 02:07:00,34.3,24.9,-100.00,West,270,2.7,-999.0,68,-99.99,,,0.00,Acu-Link.com,2013-03-03 07:07:00,
2013-03-03 02:23:00,34.2,24.7,-100.00,WNW,292,7.8,-999.0,68,-99.99,,,0.00,Acu-Link.com,2013-03-03 07:23:00,
2013-03-03 02:38:00,34.2,24.7,-100.00,West,270,5.8,-999.0,68,-99.99,,,0.00,Acu-Link.com,2013-03-03 07:38:00,
2013-03-03 02:53:00,34.0,24.5,-100.00,NW,315,6.3,-999.0,68,-99.99,,,0.00,Acu-Link.com,2013-03-03 07:53:00,
2013-03-03 03:08:00,33.8,24.7,-100.00,NNW,337,4.3,-999.0,69,-99.99,,,0.00,Acu-Link.com,2013-03-03 08:08:00,
2013-03-03 03:24:00,34.0,24.9,-100.00,WNW,292,2.7,-999.0,69,-99.99,,,0.00,Acu-Link.com,2013-03-03 08:24:00,
2013-03-03 03:39:00,33.8,24.7,-100.00,WNW,292,3.8,-999.0,69,-99.99,,,0.00,Acu-Link.com,2013-03-03 08:39:00,
2013-03-03 03:54:00,33.8,24.7,-100.00,NNW,337,4.7,-999.0,69,-99.99,,,0.00,Acu-Link.com,2013-03-03 08:54:00,
2013-03-03 04:18:00,33.8,24.7,-100.00,WNW,292,4.7,-999.0,69,-99.99,,,0.00,Acu-Link.com,2013-03-03 09:18:00,
2013-03-03 04:33:00,33.6,24.6,-100.00,NW,315,6.7,-999.0,69,-99.99,,,0.00,Acu-Link.com,2013-03-03 09:33:00,
2013-03-03 04:48:00,33.4,24.4,-100.00,NW,315,2.2,-999.0,69,-99.99,,,0.00,Acu-Link.com,2013-03-03 09:48:00,
2013-03-03 05:03:00,33.4,24.4,-100.00,NW,315,2.7,-999.0,69,-99.99,,,0.00,Acu-Link.com,2013-03-03 10:03:00,
2013-03-03 05:19:00,33.4,24.4,-100.00,ESE,112,3.1,-999.0,69,-99.99,,,0.00,Acu-Link.com,2013-03-03 10:19:00,
2013-03-03 05:34:00,33.4,24.4,-100.00,NNW,337,4.3,-999.0,69,-99.99,,,0.00,Acu-Link.com,2013-03-03 10:34:00,
2013-03-03 05:49:00,33.4,24.4,-100.00,NW,315,2.7,-999.0,69,-99.99,,,0.00,Acu-Link.com,2013-03-03 10:49:00,
2013-03-03 06:04:00,33.3,24.2,-100.00,West,270,4.3,-999.0,69,-99.99,,,0.00,Acu-Link.com,2013-03-03 11:04:00,
2013-03-03 06:19:00,33.3,24.2,-100.00,SW,225,4.7,-999.0,69,-99.99,,,0.00,Acu-Link.com,2013-03-03 11:19:00,
2013-03-03 06:34:00,33.3,24.2,-100.00,West,270,4.3,-999.0,69,-99.99,,,0.00,Acu-Link.com,2013-03-03 11:34:00,
2013-03-03 06:50:00,33.3,24.2,-100.00,NW,315,3.8,-999.0,69,-99.99,,,0.00,Acu-Link.com,2013-03-03 11:50:00,
2013-03-03 07:05:00,33.3,24.6,-100.00,NNE,22,4.3,-999.0,70,-99.99,,,0.00,Acu-Link.com,2013-03-03 12:05:00,
2013-03-03 07:20:00,33.3,24.6,-100.00,West,270,6.3,-999.0,70,-99.99,,,0.00,Acu-Link.com,2013-03-03 12:20:00,
2013-03-03 07:36:00,33.8,25.1,-100.00,NW,315,2.7,-999.0,70,-99.99,,,0.00,Acu-Link.com,2013-03-03 12:36:00,
2013-03-03 07:51:00,33.6,24.9,-100.00,WNW,292,6.3,-999.0,70,-99.99,,,0.00,Acu-Link.com,2013-03-03 12:51:00,
2013-03-03 08:06:00,33.8,25.1,-100.00,ENE,67,1.1,-999.0,70,-99.99,,,0.00,Acu-Link.com,2013-03-03 13:06:00,
2013-03-03 08:21:00,34.2,25.4,-100.00,WNW,292,3.1,-999.0,70,-99.99,,,0.00,Acu-Link.com,2013-03-03 13:21:00,
2013-03-03 08:36:00,34.3,25.2,-100.00,WNW,292,4.7,-999.0,69,-99.99,,,0.00,Acu-Link.com,2013-03-03 13:36:00,
2013-03-03 08:51:00,35.1,25.9,-100.00,North,0,3.1,-999.0,69,-99.99,,,0.00,Acu-Link.com,2013-03-03 13:51:00,
2013-03-03 09:06:00,35.4,25.9,-100.00,NW,315,5.1,-999.0,68,-99.99,,,0.00,Acu-Link.com,2013-03-03 14:06:00,
2013-03-03 09:22:00,36.0,26.1,-100.00,West,270,4.3,-999.0,67,-99.99,,,0.00,Acu-Link.com,2013-03-03 14:22:00,
2013-03-03 09:37:00,37.0,26.8,-100.00,ESE,112,3.1,-999.0,66,-99.99,,,0.00,Acu-Link.com,2013-03-03 14:37:00,
2013-03-03 09:52:00,36.5,27.0,-100.00,WNW,292,4.7,-999.0,68,-99.99,,,0.00,Acu-Link.com,2013-03-03 14:52:00,
2013-03-03 10:07:00,37.9,27.6,-100.00,NE,45,2.7,-999.0,66,-99.99,,,0.00,Acu-Link.com,2013-03-03 15:07:00,
2013-03-03 10:22:00,38.3,27.6,-100.00,NW,315,4.7,-999.0,65,-99.99,,,0.00,Acu-Link.com,2013-03-03 15:22:00,
2013-03-03 10:37:00,38.5,27.8,-100.00,NW,315,5.8,-999.0,65,-99.99,,,0.00,Acu-Link.com,2013-03-03 15:37:00,
2013-03-03 10:52:00,40.3,28.7,-100.00,West,270,2.7,-999.0,63,-99.99,,,0.00,Acu-Link.com,2013-03-03 15:52:00,
2013-03-03 11:08:00,40.8,29.2,-100.00,West,270,4.7,-999.0,63,-99.99,,,0.00,Acu-Link.com,2013-03-03 16:08:00,
2013-03-03 11:23:00,41.5,29.5,-100.00,West,270,5.8,-999.0,62,-99.99,,,0.00,Acu-Link.com,2013-03-03 16:23:00,
2013-03-03 11:38:00,42.3,29.8,-100.00,NE,45,2.2,-999.0,61,-99.99,,,0.00,Acu-Link.com,2013-03-03 16:38:00,
2013-03-03 11:53:00,41.5,29.5,-100.00,East,90,4.7,-999.0,62,-99.99,,,0.00,Acu-Link.com,2013-03-03 16:53:00,
2013-03-03 12:08:00,41.4,30.1,-100.00,NNE,22,6.7,-999.0,64,-99.99,,,0.00,Acu-Link.com,2013-03-03 17:08:00,
2013-03-03 12:23:00,43.2,31.0,-100.00,NNE,22,6.7,-999.0,62,-99.99,,,0.00,Acu-Link.com,2013-03-03 17:23:00,
2013-03-03 12:38:00,40.5,29.6,-100.00,NNE,22,6.3,-999.0,65,-99.99,,,0.00,Acu-Link.com,2013-03-03 17:38:00,
2013-03-03 12:53:00,41.5,29.9,-100.00,North,0,5.8,-999.0,63,-99.99,,,0.00,Acu-Link.com,2013-03-03 17:53:00,
2013-03-03 13:08:00,41.0,29.8,-100.00,NNW,337,6.3,-999.0,64,-99.99,,,0.00,Acu-Link.com,2013-03-03 18:08:00,
2013-03-03 13:24:00,42.4,30.4,-100.00,WNW,292,8.3,-999.0,62,-99.99,,,0.00,Acu-Link.com,2013-03-03 18:24:00,
2013-03-03 13:39:00,42.4,30.4,-100.00,WNW,292,4.3,-999.0,62,-99.99,,,0.00,Acu-Link.com,2013-03-03 18:39:00,
2013-03-03 13:54:00,41.9,29.8,-100.00,WNW,292,6.3,-999.0,62,-99.99,,,0.00,Acu-Link.com,2013-03-03 18:54:00,
2013-03-03 14:09:00,43.0,30.5,-100.00,North,0,2.7,-999.0,61,-99.99,,,0.00,Acu-Link.com,2013-03-03 19:09:00,
2013-03-03 14:24:00,42.8,30.7,-100.00,WNW,292,7.4,-999.0,62,-99.99,,,0.00,Acu-Link.com,2013-03-03 19:24:00,
2013-03-03 14:40:00,42.3,30.6,-100.00,West,270,3.1,-999.0,63,-99.99,,,0.00,Acu-Link.com,2013-03-03 19:40:00,
2013-03-03 14:55:00,42.6,30.5,-100.00,NW,315,4.3,-999.0,62,-99.99,,,0.00,Acu-Link.com,2013-03-03 19:55:00,
2013-03-03 15:10:00,43.3,30.8,-100.00,West,270,4.7,-999.0,61,-99.99,,,0.00,Acu-Link.com,2013-03-03 20:10:00,
2013-03-03 15:25:00,42.6,30.5,-100.00,NNW,337,4.3,-999.0,62,-99.99,,,0.00,Acu-Link.com,2013-03-03 20:25:00,
2013-03-03 15:40:00,41.7,30.5,-100.00,NW,315,4.3,-999.0,64,-99.99,,,0.00,Acu-Link.com,2013-03-03 20:40:00,
2013-03-03 15:55:00,42.1,31.2,-100.00,NE,45,2.7,-999.0,65,-99.99,,,0.00,Acu-Link.com,2013-03-03 20:55:00,
2013-03-03 16:11:00,40.1,30.4,-100.00,West,270,9.8,-999.0,68,-99.99,,,0.00,Acu-Link.com,2013-03-03 21:11:00,
2013-03-03 16:26:00,39.7,30.1,-100.00,NNE,22,5.8,-999.0,68,-99.99,,,0.00,Acu-Link.com,2013-03-03 21:26:00,
2013-03-03 16:41:00,39.7,30.4,-100.00,NW,315,3.8,-999.0,69,-99.99,,,0.00,Acu-Link.com,2013-03-03 21:41:00,
2013-03-03 16:56:00,39.0,30.8,-100.00,West,270,4.3,-999.0,72,-99.99,,,0.00,Acu-Link.com,2013-03-03 21:56:00,
2013-03-03 17:11:00,38.3,31.1,-100.00,WNW,292,7.4,-999.0,75,-99.99,,,0.00,Acu-Link.com,2013-03-03 22:11:00,
2013-03-03 17:26:00,37.9,31.4,-100.00,West,270,7.8,-999.0,77,-99.99,,,0.00,Acu-Link.com,2013-03-03 22:26:00,
2013-03-03 17:41:00,37.6,31.7,-100.00,NNW,337,8.3,-999.0,79,-99.99,,,0.00,Acu-Link.com,2013-03-03 22:41:00,
2013-03-03 17:56:00,36.9,31.3,-100.00,NNW,337,2.7,-999.0,80,-99.99,,,0.00,Acu-Link.com,2013-03-03 22:56:00,
2013-03-03 23:18:00,34.3,29.4,-100.00,NW,315,4.3,-999.0,82,-99.99,,,0.00,Acu-Link.com,2013-03-04 04:18:00,
2013-03-03 23:33:00,34.3,29.4,-100.00,West,270,4.3,-999.0,82,-99.99,,,0.00,Acu-Link.com,2013-03-04 04:33:00,
2013-03-03 23:49:00,34.3,27.9,-100.00,NW,315,7.4,-999.0,77,-99.99,,,0.00,Acu-Link.com,2013-03-04 04:49:00,